Hourly Data Report for October 02, 2016

All times are specified in Local Standard Time (LST). Add 1 hour to adjust for Daylight Saving Time where and when it is observed.

GJOA HAVEN A
NUNAVUT

68°38'08.000" N
95°51'01.000" W
46.90 m
2302337
71597
YHK

Download Data

Hourly Data (October 2016)
Hourly Data Report for October 2, 2016
Temp Definition
°C
Dew Point Temp Definition
°C
Rel Hum Definition
%
Wind Dir Definition
10's deg

Wind Spd Definition
km/h
Visibility Definition
km
Stn Press Definition
kPa
Hmdx Definition


Wind Chill Definition


Weather Definition


TIME
00:00 Legend Double Dagger -2.3 -3.1 94 33 22 16.1 102.19   -8 LegendNANA
01:00 Legend Double Dagger -2.9 -3.7 94 31 24 16.1 102.21   -10 LegendNANA
02:00 Legend Double Dagger -3.0 -3.8 94 32 24 16.1 102.22   -10 LegendNANA
03:00 Legend Double Dagger -3.1 -3.9 94 31 21 16.1 102.22   -9 LegendNANA
04:00 Legend Double Dagger -3.3 -3.9 96 31 18 16.1 102.18   -9 LegendNANA
05:00 Legend Double Dagger -3.5 -4.1 96 31 15 16.1 102.14   -9 LegendNANA
06:00 Legend Double Dagger -3.8 -4.4 96 30 17 16.1 102.12   -10 LegendNANA
07:00 Legend Double Dagger -3.1 -3.7 96 28 17 16.1 102.09   -9 LegendNANA
08:00 Legend Double Dagger -2.0 -3.6 89 27 24 16.1 102.06   -8 LegendNANA
09:00 Legend Double Dagger -1.3 -4.9 77 28 28 16.1 102.02   -8 LegendNANA
10:00 Legend Double Dagger -0.6 -5.6 69 29 28 16.1 101.97   -7 LegendNANA
11:00 Legend Double Dagger -0.1 -6.0 64 30 28 16.1 101.90   -6 LegendNANA
12:00 Legend Double Dagger 0.4 -5.6 64 29 30 16.1 101.83     LegendNANA
13:00 Legend Double Dagger 0.7 -5.9 62 27 28 16.1 101.77     LegendNANA
14:00 Legend Double Dagger 0.6 -3.8 73 27 28 16.1 101.70     LegendNANA
15:00 Legend Double Dagger -0.4 -3.1 82 27 26 16.1 101.65   -7 LegendNANA
16:00 Legend Double Dagger -1.1 -3.6 83 26 28 16.1 101.55   -8 LegendNANA
17:00 Legend Double Dagger -1.9 -4.2 85 26 26 16.1 101.44   -8 LegendNANA
18:00 Legend Double Dagger -1.7 -3.8 86 25 24 16.1 101.35   -8 LegendNANA
19:00 Legend Double Dagger -1.7 -4.1 84 27 28 16.1 101.26   -8 LegendNANA
20:00 Legend Double Dagger -2.2 -4.4 85 25 30 16.1 101.18   -9 LegendNANA
21:00 Legend Double Dagger -2.7 -4.9 85 25 24 16.1 101.10   -9 LegendNANA
22:00 Legend Double Dagger -2.9 -5.1 85 26 24 16.1 101.01   -10 LegendNANA
23:00 Legend Double Dagger -2.9 -5.3 84 24 24 16.1 100.90   -10 LegendNANA

Notes on Data Quality.

Legend

  • E = Estimated
  • M = Missing
  • NA = Not Available
  • ‡ = Partner data that is not subject to review by the National Climate Archives
Date modified: